Wind_Speed
4 4 4 4 4 4 4 5 5 5 6 7 8 8 8 8 8 8 8 8 9 9 10 10 10 11 12 12 12 13 14 15 15 16 16 17 17 18
5 5 5 5 5 5 5 5 5 6 7 8 9 9 9 9 9 9 9 9 10 10 10 11 11 12 12 13 14 14 15 16 16 17 17 18 18 19
5 5 5 5 6 6 6 7 7 7 8 9 9 9 10 10 9 10 10 11 11 11 11 12 13 13 14 14 15 15 16 16 17 17 18 19 19 20
5 5 6 6 6 6 7 7 8 8 9 9 9 9 10 10 10 10 10 11 11 12 13 13 14 14 15 16 16 16 17 18 18 19 19 20 20 21
6 6 6 7 7 7 7 7 8 8 8 9 9 10 10 10 10 11 11 12 12 13 14 14 15 15 16 16 17 18 19 20 20 21 21 22 22 22
7 7 7 7 7 8 8 9 9 9 9 10 10 11 11 11 12 13 13 13 15 14 15 15 16 17 17 18 19 20 21 22 22 22 23 24 24 24
7 8 8 8 8 9 9 10 10 10 10 11 11 11 12 13 13 14 15 16 16 16 16 17 17 18 19 20 21 21 22 22 23 24 25 26 26 26
8 9 9 9 9 10 10 10 10 11 11 12 12 13 14 14 15 15 16 17 18 18 18 19 19 20 21 21 22 23 24 25 25 26 26 27 28 29
10 11 11 10 11 11 11 12 12 13 13 14 14 14 15 16 16 16 17 18 19 20 20 21 22 22 23 24 25 26 26 27 28 28 29 29 30 31
12 13 13 13 13 13 13 14 14 15 15 16 16 17 17 17 17 18 19 20 21 22 23 23 24 25 26 27 28 28 29 29 30 31 32 33 34 34
13 14 14 14 14 15 15 15 16 16 17 17 18 18 18 19 20 21 22 23 23 24 25 26 26 27 28 29 30 30 31 32 33 34 35 36 37 37
14 15 16 16 16 16 16 17 17 18 19 19 19 19 20 21 22 23 23 24 25 25 26 27 27 28 29 30 32 33 34 35 36 37 38 39 39 39
16 16 16 17 17 17 17 18 19 19 20 20 20 21 21 22 23 24 25 26 26 27 27 28 29 30 31 32 33 35 36 37 38 39 40 41 41 42
17 17 17 17 17 18 18 19 20 20 20 20 21 21 22 23 24 25 26 27 28 29 29 30 31 32 33 34 35 37 38 39 40 41 42 43 45 45
17 17 18 18 18 18 19 20 20 20 21 21 22 23 24 25 26 27 28 28 29 30 31 32 33 34 35 37 38 39 40 41 43 44 45 46 46 47
18 18 18 18 18 18 19 20 20 21 22 23 23 25 25 26 26 28 29 30 31 32 33 33 34 35 37 38 40 41 43 43 44 45 46 47 48 48
19 19 19 18 19 19 20 21 22 22 23 23 24 25 26 26 27 28 30 31 32 33 34 35 36 37 39 40 42 43 44 45 45 46 46 47 47 48
19 19 19 19 20 20 21 22 22 23 23 24 25 26 27 28 29 30 31 32 33 34 36 37 39 40 41 42 43 44 45 46 46 47 47 47 47 47
20 20 20 21 21 22 22 23 23 23 24 25 26 27 28 29 31 32 33 34 35 36 38 39 40 41 43 44 45 45 46 46 47 47 48 48 48 47
21 21 22 22 22 23 23 23 23 24 25 26 27 28 30 31 32 33 34 35 36 38 39 40 42 43 44 46 46 46 47 47 47 47 48 48 48 48
22 22 23 23 23 23 23 24 25 26 27 28 29 31 31 32 33 34 35 37 38 39 40 42 44 45 47 47 47 47 47 47 47 47 47 47 47 47
22 23 23 24 24 25 25 26 27 28 29 30 31 32 32 33 34 36 37 38 39 41 43 44 45 46 47 47 47 47 46 46 46 47 48 48 47 46
23 23 23 24 25 26 26 27 28 29 30 31 32 32 33 34 36 38 39 40 41 43 44 45 46 47 47 47 46 46 45 46 46 46 46 47 47 48
Wind_Direction
263 273 282 285 289 296 307 312 315 325 333 334 335 334 333 328 329 333 332 329 328 327 326 324 324 324 322 321 318 315 316 317 316 312 307 303 298 294
265 270 277 279 284 290 298 306 310 317 324 329 331 333 333 330 329 329 329 328 326 325 324 324 323 321 320 321 321 321 319 317 315 313 308 305 302 301
262 268 274 278 281 285 293 299 303 306 314 321 324 325 326 325 322 323 323 322 321 320 319 319 318 318 318 321 319 318 317 316 317 315 312 308 306 302
260 270 276 279 283 286 291 296 301 304 309 315 317 319 321 320 322 324 321 320 319 317 315 315 315 315 316 318 317 316 316 316 315 315 312 310 307 305
266 273 279 282 288 291 295 299 302 306 308 312 315 318 319 319 318 319 317 316 318 315 313 313 314 315 316 315 315 314 315 314 313 313 312 311 309 307
270 274 283 287 290 293 298 300 302 303 306 309 313 316 316 315 314 315 314 313 315 315 314 315 315 315 314 313 312 312 312 312 312 311 311 310 310 307
273 276 282 287 289 292 296 298 300 302 304 306 309 311 313 314 314 314 313 313 315 314 313 313 314 313 313 312 312 312 311 311 311 311 310 309 309 308
277 281 287 287 286 289 292 296 301 304 305 304 306 308 309 311 312 311 311 312 313 313 311 310 311 312 312 312 312 311 310 310 310 309 308 308 308 307
276 281 286 288 289 290 292 295 298 301 302 302 304 306 308 309 310 309 308 309 310 310 310 310 310 310 310 310 311 310 310 309 309 308 308 308 307 307
273 277 282 286 288 290 293 295 297 299 301 301 302 303 305 307 309 308 307 307 307 307 307 308 308 309 309 309 310 310 309 308 308 307 307 307 306 306
276 280 282 284 287 289 291 293 295 298 299 299 300 301 302 304 306 306 307 308 307 307 306 306 306 307 308 308 309 309 308 307 307 306 306 306 305 305
276 280 283 283 284 287 289 291 293 295 296 297 297 298 299 301 304 306 307 308 309 308 307 306 305 305 306 307 308 308 308 307 306 306 306 305 305 304
276 279 281 284 287 287 288 290 292 293 294 296 296 297 299 301 303 305 307 308 309 309 308 307 307 306 306 308 308 308 308 308 307 307 306 305 304 304
276 279 282 285 287 288 289 291 293 293 294 296 297 299 301 302 303 305 307 308 308 308 307 307 307 307 307 307 308 308 308 308 307 307 306 305 304 304
276 280 283 287 288 288 290 293 294 293 294 295 298 299 301 303 304 306 307 308 308 308 308 308 308 308 308 309 309 309 308 308 307 307 306 306 305 304
275 279 283 287 288 289 291 292 293 293 294 296 298 300 301 303 305 307 308 308 309 310 310 309 309 309 310 310 310 310 309 308 308 307 307 307 307 306
276 278 281 285 287 290 292 293 293 295 296 296 298 301 302 304 306 307 308 308 309 310 310 311 310 310 310 311 311 310 310 309 309 308 308 308 308 307
278 279 281 284 286 288 292 294 295 295 296 297 299 302 303 305 306 307 308 309 310 310 311 311 311 311 311 311 312 311 311 310 309 309 309 309 309 308
277 279 281 283 286 288 291 295 296 296 297 299 301 303 304 306 306 307 308 309 310 311 311 311 311 311 311 311 312 311 311 310 310 310 310 309 309 309
277 279 281 283 285 287 291 294 295 296 297 299 301 303 304 305 306 307 308 309 310 311 312 312 312 312 312 312 312 312 311 311 310 311 311 310 310 310
276 279 280 282 285 287 290 293 294 296 297 299 300 301 302 304 305 307 308 309 310 311 312 312 312 312 313 313 313 313 313 312 312 312 312 311 311 311
276 279 281 284 286 289 291 292 293 296 298 299 300 300 301 303 305 307 309 309 310 311 311 312 313 314 314 314 314 314 314 314 314 314 314 313 313 313
278 278 281 284 287 289 292 293 295 297 298 299 299 301 302 304 306 307 309 310 311 312 312 313 314 314 315 315 316 316 316 315 315 315 315 315 314 315
Height
5850 5850 5849 5850 5850 5849 5849 5849 5848 5847 5846 5845 5844 5843 5841 5839 5838 5838 5837 5836 5835 5833 5832 5831 5830 5829 5827 5826 5824 5822 5821 5819 5818 5816 5814 5813 5811 5810
5849 5849 5848 5848 5848 5848 5848 5847 5847 5846 5845 5844 5843 5841 5839 5838 5837 5836 5835 5834 5833 5832 5831 5829 5828 5827 5825 5824 5822 5820 5818 5816 5815 5813 5811 5809 5807 5805
5847 5847 5847 5847 5847 5847 5846 5846 5845 5845 5844 5843 5841 5840 5838 5837 5835 5834 5834 5833 5831 5830 5829 5827 5826 5824 5822 5821 5819 5817 5815 5813 5811 5809 5807 5804 5802 5800
5846 5846 5846 5846 5845 5845 5845 5844 5843 5843 5842 5841 5840 5838 5837 5835 5834 5833 5831 5830 5829 5828 5826 5825 5823 5821 5819 5818 5816 5814 5812 5810 5807 5805 5802 5800 5797 5795
5844 5844 5844 5844 5844 5843 5843 5842 5842 5841 5840 5839 5838 5836 5835 5834 5832 5831 5830 5828 5827 5825 5824 5822 5820 5818 5816 5814 5812 5810 5808 5805 5803 5800 5798 5795 5792 5789
5843 5843 5843 5842 5842 5842 5841 5841 5840 5839 5838 5837 5836 5834 5833 5832 5830 5829 5827 5826 5824 5822 5820 5819 5817 5815 5813 5810 5808 5806 5803 5801 5798 5795 5793 5790 5787 5784
5841 5841 5841 5840 5840 5840 5839 5838 5838 5837 5836 5835 5833 5832 5831 5829 5828 5826 5824 5822 5820 5819 5817 5815 5813 5811 5808 5806 5803 5801 5798 5795 5793 5790 5787 5784 5780 5777
5839 5839 5839 5838 5838 5837 5837 5836 5835 5834 5833 5832 5831 5829 5828 5826 5824 5823 5821 5819 5817 5815 5813 5811 5809 5806 5804 5801 5798 5795 5792 5789 5786 5783 5780 5777 5774 5770
5837 5836 5836 5836 5835 5835 5834 5833 5832 5831 5831 5829 5828 5826 5824 5823 5821 5819 5817 5815 5813 5810 5808 5806 5803 5801 5798 5795 5792 5789 5786 5783 5780 5776 5773 5769 5766 5762
5834 5834 5833 5833 5832 5832 5831 5830 5829 5828 5827 5825 5824 5822 5820 5818 5817 5815 5813 5810 5808 5806 5803 5801 5798 5795 5792 5789 5786 5782 5779 5776 5772 5768 5765 5761 5757 5753
5831 5830 5830 5829 5829 5828 5827 5827 5825 5824 5823 5821 5819 5818 5816 5814 5812 5810 5808 5805 5803 5800 5797 5795 5792 5788 5785 5782 5778 5775 5771 5767 5764 5760 5756 5752 5748 5744
5827 5827 5826 5825 5825 5824 5823 5822 5821 5820 5818 5816 5815 5813 5811 5809 5807 5804 5802 5799 5797 5794 5791 5788 5784 5781 5778 5775 5771 5767 5763 5758 5754 5750 5746 5742 5737 5733
5823 5822 5822 5821 5820 5819 5819 5817 5816 5815 5813 5811 5809 5808 5806 5803 5801 5799 5796 5793 5790 5787 5784 5781 5778 5774 5770 5767 5763 5758 5754 5749 5744 5740 5735 5730 5726 5721
5818 5818 5817 5816 5816 5815 5813 5812 5811 5809 5808 5806 5804 5802 5800 5798 5795 5792 5790 5787 5783 5780 5777 5773 5770 5766 5762 5758 5754 5749 5744 5739 5734 5729 5724 5719 5714 5709
5813 5813 5812 5812 5811 5810 5808 5807 5805 5804 5802 5800 5799 5796 5794 5792 5789 5786 5783 5780 5776 5772 5769 5765 5761 5757 5753 5749 5744 5739 5734 5729 5723 5718 5712 5707 5701 5696
5808 5808 5807 5806 5805 5804 5803 5801 5800 5798 5796 5795 5793 5790 5788 5785 5782 5779 5776 5772 5769 5765 5760 5756 5752 5748 5744 5739 5734 5728 5723 5717 5712 5706 5700 5694 5688 5682
5803 5803 5802 5801 5800 5799 5797 5796 5794 5792 5790 5788 5786 5784 5781 5778 5775 5772 5769 5765 5761 5757 5752 5748 5743 5739 5734 5729 5723 5717 5711 5705 5699 5693 5687 5681 5674 5668
5798 5797 5796 5795 5794 5793 5792 5790 5788 5786 5784 5782 5780 5777 5774 5771 5768 5765 5761 5757 5753 5749 5744 5740 5734 5729 5724 5718 5712 5706 5700 5693 5687 5680 5674 5668 5662 5655
5792 5791 5790 5789 5788 5787 5786 5784 5782 5780 5778 5776 5773 5770 5767 5764 5760 5757 5753 5749 5745 5740 5735 5730 5725 5719 5714 5708 5702 5695 5688 5681 5675 5668 5661 5655 5649 5643
5785 5785 5784 5783 5782 5781 5779 5777 5776 5773 5771 5769 5766 5763 5760 5756 5753 5749 5745 5741 5736 5731 5726 5720 5715 5709 5703 5697 5691 5684 5676 5669 5663 5656 5650 5643 5636 5629
5779 5778 5777 5776 5775 5774 5772 5771 5769 5766 5764 5761 5758 5755 5752 5748 5744 5740 5736 5732 5727 5722 5716 5710 5704 5698 5691 5685 5678 5671 5664 5657 5650 5643 5637 5630 5624 5617
5772 5771 5770 5769 5768 5767 5765 5763 5761 5759 5756 5753 5750 5747 5743 5740 5736 5732 5727 5722 5717 5712 5706 5700 5693 5687 5680 5673 5666 5659 5652 5645 5638 5630 5623 5617 5610 5604
5764 5764 5763 5762 5761 5759 5757 5755 5753 5750 5748 5745 5742 5738 5735 5731 5727 5722 5718 5713 5707 5701 5695 5689 5682 5676 5669 5662 5654 5647 5641 5634 5627 5619 5612 5604 5597 5590